NOAA 16 DEB, 41130

Orbit data source: Space-Track

NOAA 16 DEB, 41130 is space debris in SSO originally from a launch on Thu, 21 Sep 2000 UTC launched from the Air Force Western Test Range (AFWTR). Debris objects in space refer to the collection of defunct objects orbiting the Earth. Examples of debris include non-operational satellites, rocket bodies, and fragments generated from explosions, collisions, or faulty payload assembly.

Loading next visibility...
Identifier
41130, 2000-055BM
Orbit
SSO
Country
Flag of USUS
Related business
Manufacturer
Unknown
Mission
Spacecraft
Bus & Motor
Unknown
Mass
Unknown
Launch date (UTC)
2000-09-21 (25 years ago)
Launch vehicle
Unknown
Launch site
Air Force Western Test Range (AFWTR)
Object type
Payload
Rocket body
Debris
Shape & HBR
Unknown shape, 0.1 m
Radar Cross Section
Small (<0.1 m²)

Expand to show TLE details & history
Last TLE update: 22 hours ago

TLE from 22 hours ago
0 NOAA 16 DEB
1 41130U 00055BM  25354.66327478  .00003572  00000-0  11724-2 0  9995
2 41130  98.9310 140.0571 0018386 315.9923  43.9799 14.38901598521127
Epoch: 2025-12-20T15:55Z
TLE epoch observation values (Epoch: 2025-12-20T15:55:06.940Z)
Latitude
-0.00002°
Longitude
171.79134°
Altitude
755.626 km
Speed
7.482 km/s
True Right ascension
09h 20m 13s
True Declination
0° 00' 00"
Sunlit
Object was in full shadow at epoch
Visualization orbit readout
Latitude
Unknown
Longitude
Unknown
Altitude
Unknown
Speed
Unknown
Apparent Right ascension
Unknown
Apparent Declination
Unknown
Sunlit
N/A
Visualization observer readout
Local Sidereal Time
12:55:53
Azimuth
Unknown
Elevation
Unknown
Doppler factor
Unknown
Orbital elements
Apogee altitude
772.397 km
Perigee altitude
746.151 km
Semi-major axis
7,137.411 km
Eccentricity
0.00184
Inclination
98.931°
RAAN
140.0571°
Arg. of periapsis
315.9923°
True anomaly
44.12645°
Mean anomaly
43.9799°
Eccentric anomaly
44.05315°
Mean motion
3.59942 °/min
Orbital period
100.02 mins
BSTAR
0.0011724
Loading maneuver chart data...
Computing Atmospheric mass density...
Loading historical data...
Loading historical data...
Loading historical data...
Loading historical data...
Loading historical data...
Loading historical data...
Loading historical data...

Documentation

Showing up to 5 results
|